Location: Plainartige
(45.6866°N, 1.7993°E)
Time: 11:43:18
(UTC+00:00)

Gurwin Techsat 1B - Pass Details

Date: 07 July 2022
Orbit: 812 x 813 km, 98.8° (Epoch: 10 August)

Event Time Altitude Azimuth Distance (km) Brightness Sun altitude
Rises 03:02:20 0° 10° (N) 3,346 12.9 -9.9°
Reaches altitude 10° 03:04:43 10° 6° (N) 2,410 11.9 -9.6°
Maximum altitude 03:09:55 55° 290° (WNW) 974 8.9 -9.0°
Drops below altitude 10° 03:15:04 10° 214° (SW) 2,394 10.4 -8.4°
Enters shadow 03:15:08 10° 214° (SSW) 2,424 10.4 -8.4°
